Location: Unspecified
(42.3650°N, 71.1030°W)
Time: 07:35:07
(UTC+00:00)

Vanguard 2 - Pass Details

Date: 01 July 2024
Orbit: 552 x 2913 km, 32.9° (Epoch: 13 July)

Event Time Altitude Azimuth Distance (km) Brightness Sun altitude
Exits shadow 07:42:44 16° 217° (SW) 3,422 10.1 -13.2°
Maximum altitude 07:50:54 44° 155° (SSE) 2,756 10.1 -12.2°
Drops below altitude 10° 08:05:14 10° 91° (E) 5,509 12.5 -10.4°
Sets 08:10:14 0° 86° (E) 6,683 13.2 -9.7°
